Regional Weather Roundup
Issued by NWS Grand Forks, ND

Home | Current Version | Previous Version | Text Only | Print | Product List | Glossary Off
Versions: 1 2 3 4 5 6 7 8 9 10 11 12 13 14 15 16 17 18 19 20 21 22 23 24 25 26 27 28 29 30 31 32 33 34 35 36 37 38 39 40 41 42 43 44 45 46 47 48 49 50

000
ASUS43 KFGF 030510
RWRFGF
PRAIRIE TO PINES  WEATHER ROUNDUP
NATIONAL WEATHER SERVICE EASTERN NORTH DAKOTA/GRAND FORKS ND
1100 PM CST FRI DEC 02 2016

 **SATELLITE DATA USED TO AUGMENT SKY COVER AT AUTOMATED STATIONS**
 *****  WEATHER ACROSS EASTERN NORTH DAKOTA  *****

CITY           SKY/WX    TMP DP  RH WIND       PRES   REMARKS
GRAND FORKS    CLOUDY    31  22  69 S7        30.25S WCI  24
GRAND FRKS AFB CLOUDY    30  20  65 SW7       30.24F WCI  23
GRAND FRKS NWS   N/A     30 N/A N/A SW5         N/A
DEVILS LAKE    NOT AVBL
FARGO          CLOUDY    28  19  69 SW5       30.29S WCI  23
WAHPETON ARPT  CLOUDY    27  19  74 SW5       30.30F WCI  21
$$

 ***** WEATHER ACROSS CENTRAL AND WESTERN NORTH DAKOTA  *****

CITY           SKY/WX    TMP DP  RH WIND       PRES   REMARKS
BISMARCK       CLOUDY    25  23  92 S7        30.18F WCI  17
MINOT          CLOUDY    29  25  85 SE7       30.09F WCI  22
JAMESTOWN      CLOUDY    22  18  85 S7        30.22F WCI  13
MINOT AFB      CLOUDY    28  25  90 S10       30.09F WCI  18
GARRISON         N/A     28  25  88 S9        30.11F WCI  19
WILLISTON      CLEAR     24  21  88 S5        30.03F WCI  18
DICKINSON      CLEAR     18  16  92 S12       30.06F WCI   5
HETTINGER      CLEAR     21  20  96 SE7       30.12F WCI  12
$$

 *****  OTHER AIRPORT OBSERVATIONS IN OUR AREA  *****

CITY           SKY/WX    TMP DP  RH WIND       PRES   REMARKS
WALHALLA       NOT AVBL
GRAFTON AIRPOR CLOUDY    30  25  80 S7        30.25S WCI  23
VALLEY CITY AR CLOUDY    23  21  93 SW8       30.26S WCI  14
CANDO          NOT AVBL
CAVALIER APRT  NOT AVBL
GWINNER        CLOUDY    28  21  74 S6        30.27F WCI  22
SHEYENNE NWR     N/A     26  19  75 SW2       29.95S
ROLLA          NOT AVBL
 ***** THE ABOVE OBSERVATIONS ARE NON NWS ARE NOT QUALITY
       CONTROLLED AND MAY MIS-REPORT RAIN FOR SNOW...
$$

  *****  WEATHER ACROSS NORTHERN MINNESOTA  *****

CITY           SKY/WX    TMP DP  RH WIND       PRES   REMARKS
FLAG ISLAND    CLOUDY    23  19  86 NW3       30.23S
WARROAD        CLOUDY    25  19  80 NW6       30.24S WCI  18
ROSEAU         CLOUDY    27  21  80 CALM      30.25R
HALLOCK        CLOUDY    28  27  93 SE6       30.23F WCI  22
THF RVR FALLS  NOT AVBL
BAUDETTE       CLOUDY    24  20  84 W5        30.24S WCI  18
WASKISH        CLOUDY    27  23  86 W3        30.25R
CROOKSTON      CLOUDY    28  21  74 S6        30.27S WCI  22
GREENBUSH NDAW   N/A     27  25  93 SE3         N/A
$$
  *****  WEATHER ACROSS CENTRAL AND WEST MINNESOTA  *****

CITY           SKY/WX    TMP DP  RH WIND       PRES   REMARKS
FOSSTON        CLOUDY    25  18  74 CALM      30.25S
BEMIDJI        CLOUDY    24  19  80 CALM      30.24S
PARK RAPIDS    CLOUDY    25  16  68 CALM      30.25S
ELBOW LAKE     CLOUDY    25  19  77 CALM      30.29F
WADENA         CLOUDY    25  19  80 SW6       30.27S WCI  18
DETROIT LAKES  CLOUDY    28  21  74 CALM      30.27S
MOORHEAD       CLOUDY    27  19  74 SW6       30.30S WCI  20
FERGUS FALLS   CLOUDY    25  18  74 CALM      30.33S
MORRIS MN      CLOUDY    27  21  80 N3        30.29S
STAPLES        CLOUDY    25  19  80 SW5       30.28S WCI  19
$$
  *****  WEATHER ELSEWHERE ACROSS MINNESOTA  *****

CITY           SKY/WX    TMP DP  RH WIND       PRES   REMARKS
DULUTH         NOT AVBL
INTRNTL FALLS  NOT AVBL
ELY            CLOUDY    25  25 100 W5        30.22S WCI  19
CLOQUET        CLOUDY    27  21  80 W7        30.24S WCI  19
WHEATON        NOT AVBL
BRAINERD       CLOUDY    26  21  81 W7        30.28R WCI  18
HIBBING        CLOUDY    24  22  91 NW8       30.24R WCI  15
ALEXANDRIA     CLOUDY    25  20  81 NW6       30.28F WCI  18
SAINT CLOUD    CLOUDY    28  23  81 N3        30.29R
MINNEAPOLIS    CLOUDY    30  23  75 SW8       30.31R WCI  22
$$

  *****  WEATHER ACROSS SOUTH DAKOTA  *****

CITY           SKY/WX    TMP DP  RH WIND       PRES   REMARKS
SIOUX FALLS    CLOUDY    30  24  78 CALM      30.31R
BROOKINGS      CLOUDY    25  20  81 N3        30.28S
WATERTOWN      CLOUDY    24  18  77 SW7       30.26F WCI  16
HURON          CLOUDY    29  26  89 S6        30.30S WCI  23
SISSETON         N/A     27  19  72 CALM      30.29S
ABERDEEN       CLOUDY    24  19  81 SE5       30.28S WCI  18
MITCHELL       CLOUDY    30  28  92 CALM      30.31S
PIERRE         CLEAR     19  17  92 CALM      30.22F
MOBRIDGE       CLOUDY    31  27  85 S13       30.18F WCI  21
RAPID CITY     CLEAR     23  18  81 S5        30.14F WCI  17
$$

  *****  SOME WEATHER IN NEARBY STATES *****

CITY           SKY/WX    TMP DP  RH WIND       PRES   REMARKS
GLASGOW MT     CLEAR     23  20  88 SE9       29.92F WCI  13
GREAT FALLS MT CLOUDY    30  22  72 SW21      29.88F WCI  17
CHEYENNE WY    CLOUDY    24  21  88 SW9       30.11S WCI  14
SCOTTSBLUFF NE NOT AVBL
OMAHA NE       MOCLDY    29  22  75 CALM      30.34S
DES MOINES IA  CLOUDY    37  31  78 E3        30.34S
DAVENPORT IA   CLOUDY    32  26  78 NW7       30.33F
CHICAGO IL     CLOUDY    34  24  67 SW9       30.32R
EAU CLAIRE WI  CLOUDY    31  24  75 W6        30.29R
LA CROSSE WI   CLOUDY    34  22  61 W7        30.32R
$$

  *****  SOME NATIONAL WEATHER *****

CITY           SKY/WX    TMP DP  RH WIND       PRES   REMARKS
LA GUARDIA NY  CLOUDY    46  30  53 W10       29.91S
RALEIGH NC     PTCLDY    44  30  57 VRB5      30.19R
ATLANTA GA     MOCLDY    46  32  58 NW5       30.24F
NEW ORLEANS LA LGT RAIN  60  44  55 E13       30.18F
OKLAHOMA CITY  LGT RAIN  47  45  93 N9        30.25S
ALBUQUERQUE NM MOCLDY    36  23  59 E23G35    30.06R
SALT LAKE CITY PTCLDY    27  21  78 SE6       30.28S WCI  20
LOS ANGELES CA CLEAR     56  14  19 S6        30.07R
BOISE ID       CLOUDY    32  25  75 SE9       30.28F WCI  24
SEATTLE WA     CLOUDY    46  43  89 S13       30.14R
$$

*** WEATHER ACROSS MANITOBA...SASKATCHEWAN AND ONTARIO ***
                ***ONTARIO***

CITY           SKY/WX    TMP DP  RH WIND       PRES   REMARKS
GERALDTON      FLURRIES  21  21 100 NW5       30.19R WCI  15
THUNDER BAY    CLOUDY    28  25  86 NW6       30.25R WCI  22
SIOUX LOOKOUT  FRZ DRZL  23  21  93 CALM      30.21S FOG
TORONTO        PTCLDY    36  27  69 NW13      30.05R
BIG TROUT LK   FLURRIES  16  14  93 NW6       30.27R WCI   7
PICKLE LAKE    NOT AVBL
DRYDEN         CLOUDY    21  21 100 SW2       30.21S
KENORA         FLURRIES  16  14  93 S3        30.23S
$$
                *** MANITOBA***

CITY           SKY/WX    TMP DP  RH WIND       PRES   REMARKS
BRANDON        FLURRIES  27  23  86 SE6       30.13F WCI  20
DAUPHIN        CLOUDY    28  25  86 S6        30.12F WCI  22
ISLAND LAKE    NOT AVBL
PILOT MOUND      N/A     25  21  86 S12         N/A  WCI  14
THE PAS        CLOUDY    28  27  93 SE9       30.06F WCI  20
THOMPSON       LGT SNOW  16  14  93 SE3       30.15S
WINNIPEG       CLOUDY    27  23  86 S8        30.22F WCI  18
LYNN LAKE      CLOUDY    19  18  93 S8        30.01F FOG     WCI   9
CHURCHILL      CLEAR      0  -2  92 S7        30.16F WCI -13
GILLAM         LGT SNOW   9   7  92 S6        30.21F WCI  -1
$$
                ***SASKATCHEWAN***

CITY           SKY/WX    TMP DP  RH WIND       PRES   REMARKS
ESTEVAN        MOCLDY    30  27  86 S9        30.01F WCI  22
KINDERSLEY     CLOUDY    23  21  93 E6        29.72F WCI  16
LLOYDMINSTER   CLOUDY    23  21  93 SE15      29.74F FOG     WCI  10
PRINCE ALBERT  FLURRIES  27  23  86 SE5       29.91F WCI  21
REGINA         MOCLDY    23  23 100 SE12      29.93F WCI  12
YORKTON        CLOUDY    27  25  93 SE6       30.01F WCI  20
N. BATTLEFORD  CLOUDY    25  25 100 SE16      29.83F WCI  12
LA RONGE       FRZ DRZL  27  23  86 SE10      29.91F WCI  17
SASKATOON      MOCLDY    27  19  74 SE16      29.86F WCI  14
SWIFT CURRENT  MOCLDY    25  21  86 S15G21    29.75F WCI  12
$$
NOTE: THESE ARE AUTOMATED STATIONS WITH LIMITED QUALITY CONTROL
      "FAIR" INDICATES FEW OR NO CLOUDS BELOW 12,000 FEET WITH NO
      SIGNIFICANT WEATHER AND/OR OBSTRUCTIONS TO VISIBILITY.
      SKY/WX - SKY CONDITION AND SIGNIFICANT WEATHER.
      TMP - AIR TEMPERATURE.    DP   - DEWPOINT TEMPERATURE.
      RH  - RELATIVE HUMIDITY.  PRES - PRESSURE.
      HX  - HEAT INDEX.         WCI  - WIND CHILL INDEX.
$




USA.gov is the U.S. government's official web portal to all federal, state and local government web resources and services.